SB KEPS @ AMSAT $ORB14177.O
Orbital Elements 14177.OSCAR
HR AMSAT ORBITAL ELEMENTS FOR OSCAR SATELLITES
FROM WA5QGD FORT WORTH,TX June 26, 2014
BID: ORB14177.O
TO ALL RADIO AMATEURS BT
Satellite: AO-07
Catalog number: 07530
Epoch time: 14176.84605567
Element set: 999
Inclination: 101.4717 deg
RA of node: 158.3924 deg
Eccentricity: 0.0011430
Arg of perigee: 278.7021 deg
Mean anomaly: 196.4392 deg
Mean motion: 12.53605579 rev/day
Decay rate: -4.7e-07 rev/day^2
Epoch rev: 81260
Checksum: 315
Satellite: FO-29
Catalog number: 24278
Epoch time: 14177.01444015
Element set: 404
Inclination: 098.5114 deg
RA of node: 189.6559 deg
Eccentricity: 0.0349391
Arg of perigee: 274.7313 deg
Mean anomaly: 107.8910 deg
Mean motion: 13.53025284 rev/day
Decay rate: -4.0e-07 rev/day^2
Epoch rev: 88186
Checksum: 314
Satellite: SO-33
Catalog number: 25509
Epoch time: 14177.15371499
Element set: 780
Inclination: 031.4345 deg
RA of node: 109.5756 deg
Eccentricity: 0.0349736
Arg of perigee: 192.9843 deg
Mean anomaly: 298.9020 deg
Mean motion: 14.29551663 rev/day
Decay rate: 2.38e-06 rev/day^2
Epoch rev: 81843
Checksum: 341
Satellite: RS-22
Catalog number: 27939
Epoch time: 14177.58874675
Element set: 614
Inclination: 097.8107 deg
RA of node: 351.2654 deg
Eccentricity: 0.0014589
Arg of perigee: 077.7195 deg
Mean anomaly: 282.5643 deg
Mean motion: 14.65221138 rev/day
Decay rate: 2.81e-06 rev/day^2
Epoch rev: 57410
Checksum: 337
Satellite: VO-52
Catalog number: 28650
Epoch time: 14177.04504639
Element set: 774
Inclination: 097.5596 deg
RA of node: 181.5680 deg
Eccentricity: 0.0026664
Arg of perigee: 127.4656 deg
Mean anomaly: 232.8991 deg
Mean motion: 14.85512649 rev/day
Decay rate: 7.08e-06 rev/day^2
Epoch rev: 49454
Checksum: 352
Satellite: HO-68
Catalog number: 36122
Epoch time: 14177.68687646
Element set: 712
Inclination: 100.2487 deg
RA of node: 229.2746 deg
Eccentricity: 0.0007400
Arg of perigee: 213.5553 deg
Mean anomaly: 146.5092 deg
Mean motion: 13.16316451 rev/day
Decay rate: -4.3e-07 rev/day^2
Epoch rev: 21768
Checksum: 299
Satellite: AO-73
Catalog number: 39444
Epoch time: 14177.69975200
Element set: 178
Inclination: 097.7713 deg
RA of node: 248.0281 deg
Eccentricity: 0.0061049
Arg of perigee: 211.4382 deg
Mean anomaly: 148.3101 deg
Mean motion: 14.78328494 rev/day
Decay rate: 8.41e-06 rev/day^2
Epoch rev: 3087
Checksum: 317
Satellite: FUNCUBE-3
Catalog number: 40025
Epoch time: 14177.78426723
Element set: 11
Inclination: 097.9833 deg
RA of node: 072.4259 deg
Eccentricity: 0.0011526
Arg of perigee: 268.8267 deg
Mean anomaly: 091.1626 deg
Mean motion: 14.85193769 rev/day
Decay rate: 3.26e-06 rev/day^2
Epoch rev: 101
Checksum: 298
/EX
SB KEPS @ AMSAT $ORB14177.D
Orbital Elements 14177.MICROS
HR AMSAT ORBITAL ELEMENTS FOR THE MICROSATS
FROM WA5QGD FORT WORTH,TX June 26, 2014
BID: ORB14177.D
TO ALL RADIO AMATEURS BT
Satellite: UO-11
Catalog number: 14781
Epoch time: 14177.75698334
Element set: 529
Inclination: 097.8517 deg
RA of node: 237.6982 deg
Eccentricity: 0.0009915
Arg of perigee: 144.3216 deg
Mean anomaly: 215.8661 deg
Mean motion: 14.81617911 rev/day
Decay rate: 2.44e-06 rev/day^2
Epoch rev: 62938
Checksum: 339
Satellite: AO-16
Catalog number: 20439
Epoch time: 14176.83290618
Element set: 53
Inclination: 098.5071 deg
RA of node: 114.0060 deg
Eccentricity: 0.0011949
Arg of perigee: 130.8555 deg
Mean anomaly: 289.6318 deg
Mean motion: 14.32361556 rev/day
Decay rate: 4.1e-07 rev/day^2
Epoch rev: 27572
Checksum: 294
Satellite: LO-19
Catalog number: 20442
Epoch time: 14176.80591453
Element set: 990
Inclination: 098.4779 deg
RA of node: 114.6084 deg
Eccentricity: 0.0012984
Arg of perigee: 121.1323 deg
Mean anomaly: 239.1136 deg
Mean motion: 14.32563397 rev/day
Decay rate: 2.7e-07 rev/day^2
Epoch rev: 27591
Checksum: 311
Satellite: AO-27
Catalog number: 22825
Epoch time: 14177.09215922
Element set: 699
Inclination: 098.6623 deg
RA of node: 123.1250 deg
Eccentricity: 0.0007258
Arg of perigee: 270.7736 deg
Mean anomaly: 217.6001 deg
Mean motion: 14.29724119 rev/day
Decay rate: 2.3e-07 rev/day^2
Epoch rev: 8205
Checksum: 292
Satellite: IO-26
Catalog number: 22826
Epoch time: 14177.34054425
Element set: 456
Inclination: 098.6564 deg
RA of node: 123.5900 deg
Eccentricity: 0.0007804
Arg of perigee: 261.2955 deg
Mean anomaly: 098.7343 deg
Mean motion: 14.30024971 rev/day
Decay rate: 4.5e-07 rev/day^2
Epoch rev: 8222
Checksum: 296
Satellite: GO-32
Catalog number: 25397
Epoch time: 14177.15981781
Element set: 378
Inclination: 098.4690 deg
RA of node: 134.8129 deg
Eccentricity: 0.0000093
Arg of perigee: 355.2943 deg
Mean anomaly: 072.2959 deg
Mean motion: 14.23447156 rev/day
Decay rate: 1.1e-07 rev/day^2
Epoch rev: 82914
Checksum: 324
Satellite: NO-44
Catalog number: 26931
Epoch time: 14176.99668020
Element set: 634
Inclination: 067.0525 deg
RA of node: 015.7391 deg
Eccentricity: 0.0006481
Arg of perigee: 282.7372 deg
Mean anomaly: 077.3004 deg
Mean motion: 14.30122867 rev/day
Decay rate: 6.0e-08 rev/day^2
Epoch rev: 66486
Checksum: 305
Satellite: SO-50
Catalog number: 27607
Epoch time: 14177.10963696
Element set: 429
Inclination: 064.5550 deg
RA of node: 205.1482 deg
Eccentricity: 0.0048735
Arg of perigee: 008.0220 deg
Mean anomaly: 352.1649 deg
Mean motion: 14.73785189 rev/day
Decay rate: 1.12e-06 rev/day^2
Epoch rev: 61879
Checksum: 316
Satellite: CO-55
Catalog number: 27844
Epoch time: 14177.50488491
Element set: 956
Inclination: 098.6975 deg
RA of node: 186.1423 deg
Eccentricity: 0.0008687
Arg of perigee: 243.7882 deg
Mean anomaly: 236.6963 deg
Mean motion: 14.21515190 rev/day
Decay rate: 8.9e-07 rev/day^2
Epoch rev: 56990
Checksum: 367
Satellite: CO-57
Catalog number: 27848
Epoch time: 14176.93703174
Element set: 896
Inclination: 098.7068 deg
RA of node: 185.2984 deg
Eccentricity: 0.0008490
Arg of perigee: 253.6204 deg
Mean anomaly: 167.9784 deg
Mean motion: 14.21200916 rev/day
Decay rate: 7.4e-07 rev/day^2
Epoch rev: 56974
Checksum: 356
Satellite: AO-51
Catalog number: 28375
Epoch time: 14176.81397993
Element set: 872
Inclination: 098.2506 deg
RA of node: 123.4292 deg
Eccentricity: 0.0082155
Arg of perigee: 327.0045 deg
Mean anomaly: 032.6033 deg
Mean motion: 14.41393580 rev/day
Decay rate: 4.9e-07 rev/day^2
Epoch rev: 52514
Checksum: 307
Satellite: CP3
Catalog number: 31129
Epoch time: 14177.45988782
Element set: 780
Inclination: 097.9341 deg
RA of node: 154.9712 deg
Eccentricity: 0.0097699
Arg of perigee: 342.8928 deg
Mean anomaly: 135.7479 deg
Mean motion: 14.54711281 rev/day
Decay rate: 3.36e-06 rev/day^2
Epoch rev: 38138
Checksum: 357
Satellite: CO-65
Catalog number: 32785
Epoch time: 14177.74499060
Element set: 985
Inclination: 097.6987 deg
RA of node: 228.7283 deg
Eccentricity: 0.0014945
Arg of perigee: 153.2422 deg
Mean anomaly: 346.4920 deg
Mean motion: 14.85322836 rev/day
Decay rate: 5.28e-06 rev/day^2
Epoch rev: 33344
Checksum: 349
Satellite: PRISM
Catalog number: 33493
Epoch time: 14177.75287740
Element set: 45
Inclination: 098.2499 deg
RA of node: 353.8080 deg
Eccentricity: 0.0019084
Arg of perigee: 055.8523 deg
Mean anomaly: 304.4485 deg
Mean motion: 14.89489547 rev/day
Decay rate: 1.630e-05 rev/day^2
Epoch rev: 29360
Checksum: 334
Satellite: SOHLA-1
Catalog number: 33496
Epoch time: 14176.83757054
Element set: 385
Inclination: 098.1715 deg
RA of node: 297.7891 deg
Eccentricity: 0.0006123
Arg of perigee: 203.2039 deg
Mean anomaly: 271.6561 deg
Mean motion: 14.70818314 rev/day
Decay rate: 1.12e-06 rev/day^2
Epoch rev: 29078
Checksum: 310
Satellite: TISAT-1
Catalog number: 36799
Epoch time: 14177.78201574
Element set: 307
Inclination: 098.0166 deg
RA of node: 269.8476 deg
Eccentricity: 0.0012263
Arg of perigee: 292.7450 deg
Mean anomaly: 067.2433 deg
Mean motion: 14.85699171 rev/day
Decay rate: 1.168e-05 rev/day^2
Epoch rev: 21414
Checksum: 327
Satellite: STUDSAT
Catalog number: 36801
Epoch time: 14176.35239109
Element set: 844
Inclination: 098.0363 deg
RA of node: 276.6103 deg
Eccentricity: 0.0007762
Arg of perigee: 257.9424 deg
Mean anomaly: 142.6352 deg
Mean motion: 14.96787849 rev/day
Decay rate: 3.657e-05 rev/day^2
Epoch rev: 21435
Checksum: 324
Satellite: ALMASAT-1
Catalog number: 38078
Epoch time: 14177.13348676
Element set: 65
Inclination: 069.4685 deg
RA of node: 037.7132 deg
Eccentricity: 0.0591239
Arg of perigee: 019.8646 deg
Mean anomaly: 108.9782 deg
Mean motion: 14.50583419 rev/day
Decay rate: 1.9988e-04 rev/day^2
Epoch rev: 12293
Checksum: 355
Satellite: XATCOBEO
Catalog number: 38082
Epoch time: 14177.69771094
Element set: 346
Inclination: 069.4400 deg
RA of node: 289.1464 deg
Eccentricity: 0.0193550
Arg of perigee: 318.9224 deg
Mean anomaly: 151.2752 deg
Mean motion: 15.59131494 rev/day
Decay rate: 1.20420e-03 rev/day^2
Epoch rev: 12587
Checksum: 309
Satellite: CUBEBUG-1
Catalog number: 39153
Epoch time: 14177.76952720
Element set: 241
Inclination: 098.0425 deg
RA of node: 258.0508 deg
Eccentricity: 0.0017000
Arg of perigee: 323.2907 deg
Mean anomaly: 036.7134 deg
Mean motion: 14.77735914 rev/day
Decay rate: 5.43e-06 rev/day^2
Epoch rev: 6297
Checksum: 295
Satellite: ESTCUBE-1
Catalog number: 39161
Epoch time: 14177.75201337
Element set: 230
Inclination: 098.0959 deg
RA of node: 258.5761 deg
Eccentricity: 0.0010452
Arg of perigee: 014.4085 deg
Mean anomaly: 345.7394 deg
Mean motion: 14.70015436 rev/day
Decay rate: 5.14e-06 rev/day^2
Epoch rev: 6100
Checksum: 275
Satellite: NANOSATCBR1
Catalog number: 40024
Epoch time: 14177.78422949
Element set: 11
Inclination: 097.9824 deg
RA of node: 072.4267 deg
Eccentricity: 0.0011550
Arg of perigee: 266.3839 deg
Mean anomaly: 093.6053 deg
Mean motion: 14.85202858 rev/day
Decay rate: 5.10e-06 rev/day^2
Epoch rev: 100
Checksum: 279
/EX
SB KEPS @ AMSAT $ORB14177.W
Orbital Elements 14177.WEATHER
HR AMSAT ORBITAL ELEMENTS FOR WEATHER SATELLITES
FROM WA5QGD FORT WORTH,TX June 26, 2014
BID: ORB14177.W
TO ALL RADIO AMATEURS BT
